Weather History for Marathon, FL

Change the Weather History Date:

Friday, March 14, 2014

  Actual Average Record
Temperature  
Mean Temperature 71 °F 74 °F  
Max Temperature 77 °F 79 °F 85 °F (2008)
Min Temperature 64 °F 68 °F 60 °F (2013)
Degree Days  
Heating Degree Days 0 0  
Month to date heating degree days 0 0  
Since 1 July heating degree days 35 75  
Cooling Degree Days 6 9  
Month to date cooling degree days 128 116  
Year to date cooling degree days 634 498  
Growing Degree Days 20 (Base 50)    
Moisture  
Dew Point 55 °F    
Average Humidity 59    
Maximum Humidity 68    
Minimum Humidity 49    
Precipitation  
Precipitation 0.00 in 0.07 in 0.18 in (2003)
Month to date precipitation 1.09 1.06  
Year to date precipitation 4.78 4.88  
Snow  
Snow 0.00 in - - ()
Month to date snowfall 0.0  
Since 1 July snowfall 0.0  
Snow Depth 0.00 in    
Sea Level Pressure  
Sea Level Pressure 30.16 in    
Wind  
Wind Speed 12 mph (ENE)    
Max Wind Speed 20 mph    
Max Gust Speed 29 mph    
Visibility 10 miles    
Events      
T = Trace of Precipitation, MM = Missing Value Source: NWS Daily Summary

Daily Weather History Graph

Daily Weather History Graph

Search for Another Location

Airport:

Trip Planner

Search our weather history database for the weather conditions in past years. The results will help you decide how hot, cold, wet, or windy it might be!

Date:

Astronomy

Mar. 14, 2014 Rise Set
Actual Time 7:34 AM EDT 7:32 PM EDT
Civil Twilight 7:11 AM EDT 7:55 PM EDT
Nautical Twilight 6:45 AM EDT 8:21 PM EDT
Astronomical Twilight 6:18 AM EDT 8:48 PM EDT
Moon 6:00 PM EDT (3/14) 6:04 AM EDT (3/14)
Length of Visible Light 12h 44m
Length of Day
11h 58m
Waxing Gibbous, 96% of the Moon is Illuminated
Mar 14
Waxing Gibbous
Mar 16
Full
Mar 23
Last Quarter
Mar 30
New
Apr 7
First Quarter

Hourly Weather History & Observations

Time (EDT) Temp. Dew Point Humidity Pressure Visibility Wind Dir Wind Speed Gust Speed Precip Events Conditions
12:53 AM 69.1 °F 55.0 °F 61% 30.14 in 10.0 mi NE 12.7 mph 21.9 mph N/A   Clear
1:53 AM 68.0 °F 54.0 °F 61% 30.15 in 10.0 mi NE 13.8 mph - N/A   Clear
2:53 AM 68.0 °F 48.9 °F 50% 30.14 in 10.0 mi NE 12.7 mph - N/A   Clear
3:53 AM 66.9 °F 52.0 °F 59% 30.12 in 10.0 mi NNE 15.0 mph 24.2 mph N/A   Clear
4:53 AM 66.0 °F 53.1 °F 63% 30.12 in 10.0 mi NNE 16.1 mph 23.0 mph N/A   Clear
5:53 AM 64.9 °F 54.0 °F 68% 30.14 in 10.0 mi NNE 12.7 mph 24.2 mph N/A   Clear
6:53 AM 64.9 °F 54.0 °F 68% 30.15 in 10.0 mi NNE 15.0 mph - N/A   Mostly Cloudy
7:53 AM 64.0 °F 54.0 °F 70% 30.17 in 10.0 mi NNE 12.7 mph - N/A   Partly Cloudy
8:53 AM 66.0 °F 55.0 °F 68% 30.19 in 10.0 mi NE 13.8 mph - N/A   Clear
9:53 AM 68.0 °F 55.9 °F 65% 30.21 in 10.0 mi NNE 12.7 mph - N/A   Scattered Clouds
10:53 AM 69.1 °F 57.0 °F 65% 30.22 in 10.0 mi NE 15.0 mph - N/A   Partly Cloudy
11:53 AM 75.0 °F 55.0 °F 50% 30.22 in 10.0 mi ENE 16.1 mph 23.0 mph N/A   Partly Cloudy
12:53 PM 75.9 °F 55.0 °F 48% 30.22 in 10.0 mi ENE 13.8 mph 24.2 mph N/A   Partly Cloudy
1:53 PM 75.0 °F 57.0 °F 53% 30.19 in 10.0 mi East 15.0 mph 25.3 mph N/A   Mostly Cloudy
2:53 PM 77.0 °F 57.9 °F 52% 30.17 in 10.0 mi East 13.8 mph - N/A   Partly Cloudy
3:53 PM 75.0 °F 57.0 °F 53% 30.17 in 10.0 mi East 15.0 mph 18.4 mph N/A   Partly Cloudy
4:53 PM 75.0 °F 55.9 °F 51% 30.16 in 10.0 mi East 13.8 mph 19.6 mph N/A   Mostly Cloudy
5:53 PM 73.9 °F 54.0 °F 50% 30.16 in 10.0 mi ENE 11.5 mph - N/A   Clear
6:53 PM 73.0 °F 57.0 °F 57% 30.15 in 10.0 mi East 8.1 mph - N/A   Scattered Clouds
7:53 PM 72.0 °F 55.9 °F 57% 30.15 in 10.0 mi East 10.4 mph - N/A   Scattered Clouds
8:53 PM 71.1 °F 57.0 °F 61% 30.14 in 10.0 mi East 9.2 mph - N/A   Partly Cloudy
9:53 PM 72.0 °F 57.0 °F 59% 30.15 in 10.0 mi East 10.4 mph - N/A   Mostly Cloudy
10:53 PM 72.0 °F 57.9 °F 61% 30.16 in 10.0 mi East 6.9 mph - N/A   Scattered Clouds
11:53 PM 72.0 °F 57.9 °F 61% 30.16 in 10.0 mi East 6.9 mph - N/A   Mostly Cloudy